TIANLIAN 2-02

Last updated on Sat Oct 05 2024 00:02:41 GMT+0000 (Coordinated Universal Time)

1 50005U 21124A 24277.71570944 -.00000008 00000+0 00000+0 0 9996 2 50005 0.3965 273.2777 0002612 316.6526 211.6075 1.00273114 10383
UTC large
Height (km)
Speed (km/s)
/
Latitude / Longitude
Inclination (degrees)
Orbital Period (minutes)
Azimuth
Elevation
Range (km)
Doppler Factor

Next 0 passes for location: London (51.5072 / 0.1276)

Sorry there are no passes over London.